Hauptseite
METAR-TAF:

METAR-TAF

Flughäfen :

Militärflugplatz Alpnach

Alpnach, Schweiz

Breite: 46-56-19N, Länge: 8-17-03E, Höhe: 440 m

Beobachtung

Neuester Wetterbericht von vor 20 Minuten, um 01:50 UTC
Wind 2 kt aus unterschiedlichen Richtungen
Temperatur 15°C
Luftfeuchtigkeit 88%
Luftdruck 1016 hPa
Sichtweite 10 km oder mehr
Leicht bewölkt in der Höhe von 10000 ft

METAR: LSMA 170150Z AUTO VRB02KT 9999NDV FEW100 15/13 Q1016 RMK

Zeit: 04:10 (02:10 UTC)


TAF: fehlend

Wetterbeobachtungen und Prognosen von mehr als 4000 Flughäfen (METAR und TAF Bericht).

Die verfügbaren Stationen werden durch gelbe und rote Markierungen auf der Karte dargestellt.

Führen Sie die Maus auf sie, um den Namen der Station zu sehen.

Darauf klicken, um die Beobachtung von Wetterbeobachtungen und Prognosen zu sehen.

Um die Karte zu ändern : klicken Sie auf den grünen Tasten mit einem schwarzen Kreuz Zum Vergrößern, auf den grünen Button mit einem Gedankenstrich zu verkleinern, oder auf die grünen Pfeile für benachbarte Karten.


METAR-TAF: